Wetbulb
46.92 47.22 47.11 48.79 50.68 51.86 53.57 54.59 53.39 51.83 56.89 61.15 60.39 62.53 62.95 63.49 61.61 63.15 64.02 60.66 54.05 52.74 53.05 54.14 55.35 56.16 56.50 57.14 58.28 59.26 60.64 61.43 62.05 62.43 62.81 63.58 63.88 64.05
44.30 44.18 44.23 45.70 47.28 50.28 51.69 52.78 54.63 55.06 52.58 55.80 58.88 60.66 63.31 62.85 62.00 62.26 63.86 58.22 55.24 52.51 51.38 52.10 52.98 54.19 54.44 54.99 55.27 55.78 56.98 57.80 58.62 59.29 60.19 61.34 61.98 62.44
42.07 41.82 41.39 42.34 44.11 46.40 49.57 50.83 51.46 52.72 51.53 53.63 56.53 58.76 59.32 59.52 61.67 61.90 62.20 64.16 64.36 54.40 51.57 50.95 50.89 51.25 51.84 52.16 52.88 53.03 53.24 53.92 54.77 55.78 57.28 59.44 60.94 61.77
40.16 39.36 39.45 42.02 41.59 44.04 47.71 48.03 48.40 49.91 51.82 49.64 53.02 55.62 57.81 60.58 61.74 62.02 63.00 63.88 64.03 58.82 53.62 52.11 51.31 50.37 49.51 50.96 50.96 50.96 49.85 50.02 50.74 51.83 53.24 56.04 58.65 60.29
39.03 38.63 39.04 39.67 40.09 42.74 45.98 43.79 46.81 48.74 52.39 50.22 48.42 52.24 57.26 59.55 59.75 60.78 61.00 61.42 62.20 59.33 55.17 51.86 51.27 49.71 49.33 49.15 50.23 50.40 48.38 48.75 48.22 48.78 48.95 50.60 52.95 55.11
39.56 39.12 39.06 39.82 39.34 40.05 40.88 42.86 45.58 47.10 48.00 47.84 47.96 50.24 52.86 54.38 57.42 58.61 58.06 60.21 60.58 62.42 59.07 57.34 53.45 50.60 49.63 49.87 49.33 49.49 49.87 49.13 49.15 48.24 46.97 47.33 48.24 50.42
39.00 39.33 39.75 40.55 40.68 40.12 41.66 42.00 42.66 44.96 45.11 45.59 45.40 46.94 49.60 50.03 49.98 50.67 51.87 54.32 52.64 56.02 58.55 60.63 58.93 57.36 51.46 49.09 50.94 49.85 49.33 49.15 48.24 47.13 46.57 46.43 47.15 47.70
37.17 38.58 39.43 39.68 39.92 38.88 38.39 37.77 38.58 40.79 42.55 44.28 44.15 44.50 47.57 49.12 49.83 48.94 48.58 49.18 49.85 55.54 54.55 55.40 55.77 55.21 55.71 55.59 50.96 49.51 48.06 45.88 45.85 45.49 46.23 45.70 46.25 46.61
36.64 36.97 37.55 38.95 38.92 39.39 37.66 37.01 37.74 38.16 38.36 39.83 40.58 42.40 43.32 45.85 46.25 45.68 46.87 47.33 47.15 51.27 55.29 52.58 50.76 55.23 57.20 54.87 47.33 47.33 47.33 47.70 45.34 44.61 44.92 44.61 46.05 44.98
36.24 36.70 36.43 37.10 38.08 37.44 37.40 37.26 37.51 38.91 39.34 38.94 39.83 40.61 40.73 41.74 42.53 45.32 46.72 47.03 48.27 45.87 50.78 51.63 40.26 46.79 44.23 50.58 48.78 48.06 46.25 45.70 45.52 43.49 42.55 41.66 41.68 42.55
35.48 35.59 36.07 35.87 36.51 37.33 36.47 35.98 36.19 36.63 37.47 37.76 38.11 37.45 37.10 37.43 38.87 41.64 43.36 44.80 40.25 37.73 41.68 40.97 34.81 35.19 35.19 39.00 39.47 40.48 41.52 42.44 41.50 41.66 41.45 41.07 40.40 40.03
33.81 34.60 34.88 34.91 35.28 35.91 35.94 35.41 33.79 34.58 34.06 33.69 34.06 35.06 36.14 37.94 38.53 42.03 44.20 44.15 39.34 36.28 39.87 40.63 35.73 35.91 37.36 35.16 34.63 36.94 38.22 38.76 39.69 40.23 40.71 40.53 39.84 40.53
31.78 32.44 33.66 34.76 35.15 35.68 35.81 34.74 34.17 34.51 33.18 33.12 33.51 34.28 34.64 35.86 38.26 41.27 44.63 45.47 42.91 39.67 41.70 43.85 36.26 36.26 37.18 36.08 35.54 34.45 35.16 35.34 36.24 38.70 39.72 39.84 39.59 40.66
30.68 31.82 32.95 34.13 34.65 35.00 34.46 34.26 33.92 32.86 32.94 32.35 32.71 33.18 33.52 34.02 36.97 39.05 39.90 41.38 40.77 40.92 41.94 43.60 36.44 38.62 37.71 35.35 37.54 34.98 34.61 34.79 34.99 34.78 35.14 38.70 38.60 38.95
31.58 32.18 32.57 32.69 33.04 33.25 34.34 34.50 33.42 33.43 32.73 32.37 32.68 33.60 34.78 35.74 36.92 37.45 36.94 37.30 36.80 37.32 37.96 36.74 35.87 36.08 35.90 35.90 35.52 33.71 35.17 35.88 34.43 34.25 34.24 34.43 34.61 35.16
30.81 31.62 31.30 30.51 31.65 32.14 32.39 33.87 34.58 35.34 34.70 33.96 34.82 36.48 37.36 37.37 37.02 34.98 33.89 33.72 33.72 34.25 34.19 34.90 35.62 35.98 33.18 33.89 34.79 33.89 33.89 35.90 33.89 34.07 33.69 33.53 34.25 36.74
29.68 29.95 29.33 29.10 28.97 29.88 30.81 31.74 33.28 33.76 33.09 34.38 35.67 36.98 37.09 36.69 35.83 37.07 33.71 33.35 33.54 33.35 33.71 32.98 33.81 33.93 32.94 32.95 32.98 32.98 32.98 33.16 33.87 34.05 34.20 33.35 33.33 34.25
27.94 27.22 26.72 27.38 27.35 28.18 28.93 30.10 31.95 32.29 32.85 33.34 33.63 33.66 33.92 35.24 35.33 34.90 34.37 33.15 32.80 32.97 32.80 32.79 32.58 32.42 32.24 32.03 33.96 32.24 32.44 32.62 32.80 32.98 33.16 32.62 32.62 33.51
26.41 26.15 25.70 26.00 26.48 27.23 28.02 29.04 29.66 32.16 33.55 32.88 32.58 32.43 32.16 32.70 33.01 33.34 33.37 32.80 32.61 32.62 32.62 32.80 32.41 32.21 32.05 32.36 31.26 33.27 30.92 32.23 32.44 32.23 32.42 32.62 32.44 32.62
26.50 25.86 25.37 25.68 26.30 26.61 27.20 27.80 29.08 30.78 32.09 32.34 32.20 32.41 32.46 32.16 32.00 32.08 32.49 31.87 32.23 32.24 32.03 32.42 32.21 32.03 31.39 31.14 29.82 30.51 32.53 32.05 32.05 30.92 30.00 31.26 31.81 31.85
25.89 26.10 25.54 25.49 25.85 26.50 27.06 27.54 28.31 28.79 30.62 31.63 32.17 32.07 32.14 32.13 31.60 31.85 31.90 31.63 31.78 31.82 30.27 29.90 31.20 31.60 32.15 32.03 28.81 28.28 30.77 32.98 33.46 31.76 31.44 30.26 29.45 30.74
23.64 25.27 25.66 25.95 25.68 26.28 26.84 27.29 27.61 28.09 29.18 30.65 31.69 32.13 32.14 32.35 31.81 31.64 31.82 31.57 31.55 31.40 31.25 32.00 32.70 32.29 31.24 29.94 27.85 28.30 29.58 31.57 32.77 31.70 31.78 31.99 30.81 27.53
22.68 23.31 24.80 23.72 25.24 25.72 26.33 26.73 26.99 27.38 28.53 29.28 30.81 31.72 32.20 31.78 32.34 32.55 32.22 32.05 31.33 31.09 30.95 30.02 30.28 30.02 29.68 29.42 28.75 28.17 28.56 29.09 29.85 28.64 28.96 31.23 31.61 31.39
MSLP
1018.04 1017.54 1017.04 1016.48 1014.83 1012.43 1012.54 1011.22 1009.05 1007.50 1005.94 1004.58 1004.04 1003.93 1003.53 1003.21 1002.80 1002.52 1002.35 1002.25 1002.27 1002.24 1002.20 1002.29 1002.41 1002.70 1003.09 1003.41 1003.66 1003.87 1004.09 1004.42 1004.59 1004.79 1004.93 1005.00 1005.13 1005.30
1018.12 1017.44 1016.60 1015.43 1014.21 1012.69 1011.89 1010.41 1009.94 1008.24 1006.69 1006.29 1005.61 1005.20 1004.30 1003.24 1002.11 1001.91 1001.38 1001.26 1001.23 1001.32 1001.44 1001.29 1001.14 1001.36 1001.58 1001.93 1002.26 1002.50 1002.91 1003.34 1003.76 1004.07 1004.18 1004.25 1004.33 1004.60
1017.66 1016.86 1016.08 1015.25 1014.01 1012.99 1011.97 1011.34 1010.31 1009.20 1006.99 1005.91 1005.13 1004.08 1004.17 1003.08 1002.46 1002.26 1001.25 1000.81 1000.52 1000.11 1000.13 1000.15 1000.05 999.77 1000.10 1000.73 1001.34 1001.46 1001.70 1002.23 1002.76 1003.27 1003.47 1003.50 1003.49 1003.53
1017.32 1016.86 1016.02 1014.94 1013.93 1012.94 1011.70 1010.56 1009.79 1008.70 1007.06 1005.15 1004.72 1003.12 1001.59 1001.79 1001.34 1000.79 1001.05 1000.86 1000.11 999.22 999.14 999.16 999.04 999.10 999.16 999.76 1000.36 1000.83 1001.25 1001.68 1001.79 1001.97 1002.38 1002.52 1002.64 1002.51
1017.25 1016.60 1015.75 1014.85 1013.76 1012.77 1011.61 1011.05 1009.60 1008.57 1006.67 1005.56 1004.61 1003.32 1001.95 1000.95 999.82 999.62 999.44 999.20 998.62 998.77 997.77 997.23 997.46 997.89 998.27 998.53 999.00 999.37 1000.20 1000.27 1000.72 1001.14 1001.40 1001.82 1002.08 1002.13
1016.88 1016.11 1015.33 1014.47 1013.76 1012.69 1011.61 1010.60 1009.38 1008.38 1007.43 1006.12 1004.74 1003.08 1001.76 1000.79 1000.37 999.35 998.48 996.84 997.66 996.66 996.56 996.63 996.48 996.10 995.94 996.59 998.18 998.16 998.91 999.70 999.96 1000.14 1000.66 1001.11 1001.46 1001.66
1016.34 1015.45 1014.65 1014.11 1013.52 1012.63 1011.72 1010.68 1009.53 1008.07 1007.26 1006.11 1004.89 1003.69 1002.39 1001.93 1001.51 1001.19 999.48 998.01 996.35 996.50 995.74 995.57 995.47 995.05 994.46 992.81 996.35 997.43 997.96 998.57 998.65 999.06 999.62 999.97 1000.62 1000.97
1015.86 1014.88 1014.16 1013.42 1012.61 1012.01 1011.42 1010.78 1010.21 1009.20 1007.59 1006.42 1005.29 1004.24 1003.26 1002.53 1001.67 1001.04 999.88 997.97 996.53 995.32 995.77 996.21 993.89 994.65 994.27 994.45 995.73 996.31 997.27 997.99 997.99 998.85 998.75 999.15 999.89 1000.51
1015.92 1014.70 1013.59 1012.78 1012.13 1011.29 1010.71 1010.17 1009.51 1008.71 1007.87 1007.46 1006.17 1004.75 1003.55 1002.60 1002.18 1001.38 1000.20 998.97 997.91 996.91 996.22 995.74 994.99 994.36 993.06 994.16 994.98 995.92 997.15 997.07 997.15 998.35 998.21 998.52 999.40 999.60
1015.80 1014.63 1013.56 1012.40 1011.67 1011.04 1010.12 1009.30 1008.53 1007.76 1007.13 1006.53 1005.64 1004.77 1003.94 1003.29 1002.93 1001.90 1000.61 999.54 998.68 997.22 996.09 995.31 995.02 994.52 993.37 994.17 994.74 995.77 996.22 997.04 997.91 998.30 998.10 998.10 998.46 998.81
1015.52 1014.50 1013.39 1012.34 1011.40 1010.64 1009.72 1008.65 1007.73 1006.94 1006.26 1005.52 1004.79 1004.15 1003.24 1002.49 1002.27 1001.49 1000.06 999.59 999.09 997.62 996.58 996.30 996.43 995.94 995.37 995.05 995.85 995.52 996.75 996.86 997.51 998.31 998.52 998.20 997.45 997.71
1015.19 1013.97 1013.02 1012.18 1011.20 1010.38 1009.49 1008.55 1007.32 1006.43 1005.72 1004.84 1004.18 1003.50 1002.62 1001.43 1000.82 1000.41 999.47 999.19 999.03 998.44 996.40 996.97 996.66 996.62 995.86 996.66 996.52 995.86 996.42 997.32 998.07 998.24 998.98 998.66 998.09 997.87
1015.13 1013.80 1012.83 1011.89 1010.90 1009.90 1009.03 1008.12 1007.04 1006.01 1005.18 1004.28 1003.27 1002.36 1001.57 1000.93 1000.23 999.38 998.83 998.47 998.59 998.24 996.72 995.90 996.81 997.02 996.57 997.22 996.54 996.51 996.69 997.96 998.32 998.38 998.59 998.77 998.50 998.58
1015.48 1014.18 1012.98 1011.81 1010.62 1009.36 1008.34 1007.34 1006.33 1005.47 1004.51 1003.50 1002.46 1001.56 1000.82 1000.20 999.57 998.84 998.29 998.18 997.81 997.75 997.35 996.84 996.43 996.70 997.41 998.21 998.33 997.80 997.92 997.86 998.50 999.19 998.65 997.98 998.29 998.86
1015.74 1014.39 1013.05 1011.76 1010.42 1009.07 1008.12 1006.88 1005.70 1004.75 1003.85 1002.91 1001.88 1000.80 1000.04 999.62 999.05 998.44 997.60 997.48 997.34 997.44 997.48 996.99 997.11 996.99 997.86 997.99 998.74 998.93 998.92 998.63 997.44 998.75 998.79 998.19 998.41 998.53
1015.64 1014.42 1013.32 1012.19 1010.91 1009.71 1008.37 1007.26 1006.08 1004.95 1003.92 1002.67 1001.37 1000.17 999.37 998.93 998.48 998.18 997.88 997.75 998.11 997.97 997.81 997.45 997.01 997.13 998.25 998.37 998.40 998.79 998.69 999.17 999.02 999.04 998.67 998.02 997.97 998.51
1015.89 1014.63 1013.45 1012.24 1011.06 1009.90 1008.80 1007.86 1006.60 1005.46 1004.26 1003.10 1001.79 1000.57 999.58 998.97 998.55 998.45 998.45 998.44 998.44 997.99 997.66 998.06 997.88 998.30 998.13 998.14 998.11 998.11 998.49 998.71 999.10 998.96 998.56 998.67 998.55 998.02
1016.48 1015.57 1014.65 1013.65 1012.62 1011.43 1010.06 1008.67 1007.34 1006.16 1005.10 1003.99 1002.83 1001.83 1000.85 999.99 999.53 999.26 999.14 999.01 998.79 998.63 998.49 998.58 998.70 998.58 998.71 999.12 998.88 998.48 998.48 998.84 998.83 998.75 998.94 998.89 998.54 998.71
1017.32 1016.57 1015.81 1014.80 1013.70 1012.45 1011.30 1009.97 1008.48 1007.11 1005.95 1004.83 1003.78 1002.76 1001.83 1001.02 1000.28 999.90 999.50 999.12 998.91 998.72 998.72 998.67 998.81 998.60 998.59 998.83 999.22 999.22 998.77 998.54 998.48 998.78 999.00 999.38 999.51 999.41
1018.34 1017.64 1016.76 1015.81 1014.74 1013.54 1012.26 1010.94 1009.51 1008.05 1006.66 1005.55 1004.53 1003.60 1002.72 1001.91 1001.10 1000.41 999.87 999.43 999.09 998.84 998.74 998.83 998.75 998.83 998.99 999.25 999.33 999.39 999.15 998.94 998.85 999.14 999.62 999.76 1000.02 999.97
1019.22 1018.39 1017.71 1016.66 1015.52 1014.39 1013.23 1011.89 1010.52 1009.14 1007.82 1006.56 1005.48 1004.54 1003.63 1002.78 1002.02 1001.34 1000.72 1000.29 999.92 999.57 999.39 999.41 999.46 999.40 999.34 999.40 999.66 999.97 999.89 999.57 999.28 999.51 999.67 999.88 1000.09 1000.32
1020.27 1019.26 1018.37 1017.41 1016.47 1015.32 1014.11 1012.85 1011.37 1010.02 1008.72 1007.47 1006.34 1005.40 1004.55 1003.71 1003.01 1002.39 1001.80 1001.28 1000.90 1000.58 1000.38 1000.26 1000.07 999.96 999.89 1000.02 1000.35 1000.50 1000.34 1000.24 1000.24 1000.19 1000.19 1000.01 999.88 1000.14
1021.12 1020.28 1019.30 1018.51 1017.32 1016.19 1015.14 1013.91 1012.56 1011.30 1010.01 1008.87 1007.68 1006.56 1005.58 1004.70 1004.04 1003.39 1002.79 1002.34 1001.96 1001.60 1001.41 1001.30 1001.14 1001.03 1001.00 1000.92 1000.96 1001.19 1001.20 1001.13 1000.93 1000.83 1000.84 1000.34 999.96 999.89
Wind_Speed
10 12 11 10 10 9 9 10 9 11 15 14 12 12 10 11 14 15 16 19 20 22 23 23 22 21 20 19 20 20 19 19 18 19 19 20 21 21
11 13 13 12 13 11 11 11 10 10 12 9 12 15 15 11 11 14 16 16 18 19 21 24 23 22 21 21 20 19 18 17 17 18 19 20 21 21
14 16 17 17 13 11 11 9 11 11 10 8 10 13 16 15 15 14 11 12 11 18 21 23 24 25 23 20 19 18 16 16 17 17 19 21 22 22
17 17 17 14 17 15 12 12 14 13 10 13 10 10 11 12 14 9 9 11 11 13 19 23 26 25 21 21 19 18 17 15 15 17 18 20 21 21
18 15 16 16 16 14 13 13 13 13 10 10 10 9 11 10 13 13 15 17 12 19 21 24 27 23 20 22 23 21 19 17 16 16 17 17 16 16
15 17 17 15 16 18 16 16 12 12 12 10 11 10 9 11 13 13 14 11 16 11 15 21 18 24 20 20 19 18 17 16 16 16 15 16 16 17
16 16 14 16 23 19 11 14 16 11 10 10 10 10 8 9 9 9 9 6 4 4 6 6 8 12 7 16 11 16 17 18 16 15 15 14 16 16
17 16 15 18 17 17 16 21 14 14 13 10 9 10 11 10 6 9 10 7 6 1 0 6 1 4 3 1 10 14 14 13 15 15 13 12 13 15
17 17 16 12 15 14 18 18 16 15 11 11 15 13 12 11 11 12 11 10 7 10 6 9 3 5 3 5 7 10 15 12 7 14 12 12 16 16
17 17 18 18 16 16 16 16 15 13 13 13 14 14 13 14 13 12 12 12 10 5 6 10 2 4 3 2 6 9 7 8 11 12 12 14 12 13
16 17 17 18 23 24 17 17 17 15 13 19 20 21 23 23 19 9 10 7 6 4 3 2 3 3 5 3 4 11 5 4 6 9 11 11 11 11
16 16 19 18 24 24 15 16 17 16 15 18 16 17 17 18 20 11 9 8 4 5 3 3 2 2 5 4 2 5 6 9 5 3 8 8 4 2
13 13 12 24 26 26 25 16 17 17 18 14 12 11 12 12 11 9 7 7 7 5 4 3 2 3 2 2 3 3 3 2 3 3 4 6 7 5
13 12 14 27 26 25 20 21 25 18 10 10 10 10 9 9 10 9 8 7 4 6 5 4 1 4 2 2 1 4 3 1 2 2 2 2 4 9
13 17 25 27 25 17 23 24 17 9 9 10 10 10 9 9 9 7 5 4 5 4 2 2 2 3 3 1 3 3 1 4 3 1 2 3 2 0
17 13 15 17 16 14 14 14 11 11 11 10 11 10 8 7 6 2 2 2 2 3 3 5 4 5 3 2 3 2 2 2 1 3 2 0 2 3
14 12 13 14 15 15 14 15 12 12 12 12 12 11 7 4 3 3 1 1 2 3 3 2 5 4 3 1 2 1 0 0 2 3 1 2 2 1
11 12 13 14 14 14 14 14 12 14 12 12 10 10 9 8 6 3 2 1 2 3 2 2 3 1 1 2 7 1 1 1 1 0 2 2 3 3
13 12 13 13 14 14 13 13 13 12 14 11 11 10 9 8 8 5 4 1 1 1 2 2 1 1 2 1 1 11 2 2 2 2 2 2 1 2
11 12 13 13 13 13 14 13 13 13 13 12 11 10 10 9 8 7 6 4 3 3 3 3 3 3 2 2 2 3 12 2 2 2 2 1 3 9
12 10 12 12 13 13 13 13 15 14 14 12 11 10 10 9 9 8 7 8 7 4 5 5 5 5 2 2 3 3 4 12 5 1 2 3 2 2
11 11 12 11 12 13 13 13 13 14 14 13 12 11 10 9 8 8 8 6 6 5 3 4 5 4 3 3 4 2 2 3 8 15 12 3 3 3
10 11 10 11 12 12 12 13 13 13 13 13 13 12 11 10 9 8 7 6 6 6 5 5 5 5 6 6 6 5 7 6 4 7 8 11 12 17
Wind_Direction
323 324 317 307 313 321 310 293 296 319 308 278 263 253 243 237 239 238 241 244 234 233 230 229 228 223 219 219 222 225 226 227 229 233 232 230 233 230
329 319 322 320 319 315 305 319 305 285 284 312 325 327 321 285 250 241 245 240 241 239 237 233 227 221 216 215 218 218 219 223 229 234 234 230 234 230
325 328 321 317 310 312 305 299 300 315 292 286 270 293 277 275 281 294 273 251 248 238 239 237 232 220 213 212 223 218 211 218 226 235 239 235 227 223
325 322 315 313 310 306 297 311 307 301 288 304 313 294 290 272 262 254 270 286 265 250 240 243 239 233 209 216 222 223 218 214 218 227 234 233 228 219
319 311 309 311 309 307 309 310 300 306 305 309 304 301 288 273 268 259 258 252 257 262 256 241 235 219 208 207 215 216 217 216 222 230 233 233 235 217
313 312 309 305 313 310 304 301 305 306 313 305 307 312 318 329 311 262 247 247 246 252 263 257 236 223 214 208 214 209 225 227 231 233 235 241 235 230
312 311 307 304 299 292 312 321 317 304 300 302 307 313 315 317 329 311 305 294 279 237 289 256 245 228 160 174 202 219 225 231 230 232 229 233 238 237
317 314 311 305 301 301 315 318 300 310 311 299 293 295 305 314 318 316 313 334 319 275 6 283 66 202 167 136 225 216 214 217 219 235 230 233 239 237
315 313 310 303 305 304 306 301 299 293 288 300 298 299 305 312 318 308 312 306 305 285 283 276 258 248 136 178 214 227 232 240 226 238 235 229 223 219
314 311 310 307 304 302 302 300 299 295 299 293 289 296 292 296 289 289 290 291 283 285 327 249 277 270 71 161 190 241 248 235 234 234 221 207 207 210
318 314 310 306 303 300 300 301 299 293 287 278 272 277 281 280 273 284 274 286 286 282 318 107 316 319 342 49 359 40 354 250 234 243 235 223 190 183
323 321 316 308 305 302 296 301 298 296 298 300 295 288 286 285 281 258 266 267 272 299 247 335 357 291 42 332 349 63 31 26 338 267 266 267 214 160
326 329 328 324 316 309 302 296 290 295 294 288 285 285 293 286 281 276 256 250 255 260 278 118 128 335 66 318 354 40 81 14 350 342 284 253 202 210
332 327 324 328 329 320 310 299 294 294 288 286 286 282 277 281 282 276 268 254 258 265 324 332 239 139 123 64 318 5 336 160 142 243 257 330 215 226
336 335 340 343 337 337 333 322 313 302 295 291 284 279 275 270 278 280 294 302 303 287 298 99 99 50 19 128 182 169 54 319 40 307 266 188 165 280
340 340 342 342 347 343 346 343 340 335 320 300 292 288 285 282 280 240 358 0 326 296 4 11 63 121 157 182 158 153 160 257 330 272 277 283 134 214
339 348 352 354 353 350 351 349 345 343 343 339 336 340 322 300 313 5 25 310 254 324 4 22 43 38 44 71 33 70 131 228 289 295 19 310 302 149
356 359 354 352 351 347 345 342 346 345 341 339 340 344 346 351 352 349 346 0 349 342 337 5 0 8 123 79 43 117 136 190 216 339 2 17 351 338
6 358 354 350 346 345 345 342 341 342 339 341 341 343 340 338 341 339 335 313 328 359 358 1 354 34 4 354 24 48 20 8 20 50 45 30 339 331
8 356 352 348 347 344 342 342 342 342 348 345 345 344 344 342 341 343 344 340 340 354 12 7 19 19 360 18 65 349 10 335 37 62 55 52 76 64
348 354 354 348 347 345 343 342 345 344 344 346 348 347 346 348 353 356 358 5 2 2 24 16 350 357 50 61 56 9 358 21 48 107 121 77 58 41
347 348 347 345 349 347 345 345 345 348 347 348 348 349 350 352 358 358 4 5 11 12 19 4 4 12 27 64 73 50 18 22 43 55 39 70 156 154
342 343 343 345 344 343 344 346 348 346 348 348 347 349 350 355 359 360 2 5 14 14 19 32 36 41 52 59 58 49 51 36 22 37 27 33 84 97